Change the Weather History Date:

Friday, November 11, 2011

  Actual Average Record
Temperature  
Mean Temperature 37 °F -  
Max Temperature 42 °F 47 °F 72 °F (1927)
Min Temperature 32 °F 36 °F 21 °F (1956)
Degree Days  
Heating Degree Days 28    
Moisture  
Dew Point 29 °F    
Average Humidity 73    
Maximum Humidity 100    
Minimum Humidity 47    
Precipitation  
Precipitation 0.19 in - - ()
Sea Level Pressure  
Sea Level Pressure 29.84 in    
Wind  
Wind Speed 8 mph (West)    
Max Wind Speed 18 mph    
Max Gust Speed 32 mph    
Visibility 8 miles    
Events Fog , Rain , Snow    
Averages and records for this station are not official NWS values.
T = Trace of Precipitation, MM = Missing Value Source: NWS Daily Summary

Daily Weather History Graph

Daily Weather History Graph

Search for Another Location

Airport or City:

Trip Planner

Search our weather history database for the weather conditions in past years. The results will help you decide how hot, cold, wet, or windy it might be!

Date:

Astronomy

Nov. 11, 2011 Rise Set
Actual Time 7:02 AM EST 4:58 PM EST
Civil Twilight 6:32 AM EST 5:28 PM EST
Nautical Twilight 5:59 AM EST 6:02 PM EST
Astronomical Twilight 5:25 AM EST 6:35 PM EST
Moon 5:24 PM EST (11/11) 7:51 AM EST (11/11)
Length of Visible Light 10h 55m
Length of Day
9h 55m
Full, 99% of the Moon is Illuminated
Nov 11
Full
Nov 18
Last Quarter
Nov 25
New
Dec 2
First Quarter
Dec 10
Full

Hourly Weather History & Observations

Time (EST) Temp. Windchill Dew Point Humidity Pressure Visibility Wind Dir Wind Speed Gust Speed Precip Events Conditions
12:04 AM 32.0 °F 28.7 °F 30.2 °F 93% 29.80 in 0.5 mi SSW 3.5 mph - 0.05 in Fog , Snow Snow
12:13 AM 32.0 °F - 32.0 °F 100% 29.80 in 0.8 mi Calm Calm - 0.09 in Snow Light Snow
12:23 AM 32.0 °F - 30.2 °F 93% 29.80 in 0.5 mi Calm Calm - 0.12 in Fog , Snow Snow
12:37 AM 32.0 °F 27.5 °F 30.2 °F 93% 29.78 in 1.2 mi SSE 4.6 mph - 0.14 in Snow Light Snow
12:42 AM 32.0 °F 28.7 °F 30.2 °F 93% 29.78 in 3.0 mi South 3.5 mph - 0.14 in Snow Light Snow
12:50 AM 33.8 °F 28.6 °F 32.0 °F 93% 29.78 in 7.0 mi SSW 5.8 mph - 0.14 in   Overcast
12:53 AM 33.1 °F 27.7 °F 30.9 °F 92% 29.80 in 9.0 mi SSW 5.8 mph - 0.14 in   Overcast
1:53 AM 33.1 °F 28.7 °F 30.9 °F 92% 29.79 in 10.0 mi SW 4.6 mph - N/A   Unknown
2:53 AM 36.0 °F 29.0 °F 30.0 °F 79% 29.78 in 10.0 mi WNW 9.2 mph - N/A   Overcast
3:53 AM 37.9 °F 31.5 °F 28.9 °F 70% 29.77 in 10.0 mi West 9.2 mph 18.4 mph 0.01 in   Mostly Cloudy
4:53 AM 37.9 °F 30.9 °F 28.9 °F 70% 29.78 in 10.0 mi West 10.4 mph 19.6 mph N/A   Mostly Cloudy
5:25 AM 37.4 °F 30.3 °F 28.4 °F 70% 29.76 in 10.0 mi West 10.4 mph 19.6 mph N/A   Overcast
5:45 AM 37.4 °F 31.4 °F 28.4 °F 70% 29.77 in 10.0 mi West 8.1 mph - N/A   Overcast
7:11 AM 39.2 °F 30.8 °F 30.2 °F 70% 29.78 in 10.0 mi West 15.0 mph 24.2 mph N/A   Overcast
7:53 AM 37.9 °F 29.6 °F 30.9 °F 76% 29.81 in 8.0 mi WNW 13.8 mph 25.3 mph 0.00 in Snow Light Snow
8:07 AM 39.2 °F 30.8 °F 30.2 °F 70% 29.80 in 10.0 mi WNW 15.0 mph 25.3 mph 0.00 in Rain Light Rain
8:16 AM 39.2 °F 30.5 °F 30.2 °F 70% 29.80 in 10.0 mi WNW 16.1 mph 24.2 mph 0.00 in Rain Light Rain
8:53 AM 39.0 °F 30.6 °F 30.9 °F 73% 29.83 in 10.0 mi WNW 15.0 mph 28.8 mph 0.00 in   Overcast
9:48 AM 39.2 °F 30.8 °F 32.0 °F 75% 29.82 in 10.0 mi WNW 15.0 mph 25.3 mph 0.00 in Rain Light Rain
10:19 AM 39.2 °F 29.8 °F 30.2 °F 70% 29.83 in 10.0 mi WNW 18.4 mph 32.2 mph 0.00 in   Overcast
11:53 AM 39.9 °F 31.4 °F 28.9 °F 65% 29.86 in 10.0 mi West 16.1 mph 26.5 mph N/A   Mostly Cloudy
12:53 PM 41.0 °F 32.2 °F 28.0 °F 60% 29.86 in 10.0 mi WNW 18.4 mph 26.5 mph 0.01 in   Overcast
1:53 PM 37.9 °F 29.2 °F 30.9 °F 76% 29.87 in 7.0 mi NW 15.0 mph 28.8 mph 0.01 in Rain Light Rain
2:53 PM 39.9 °F 31.4 °F 28.9 °F 65% 29.88 in 10.0 mi WNW 16.1 mph 26.5 mph 0.02 in Rain Light Rain
3:53 PM 42.1 °F 33.9 °F 25.0 °F 51% 29.89 in 10.0 mi WNW 17.3 mph 26.5 mph 0.00 in   Overcast
4:53 PM 42.1 °F 34.2 °F 23.0 °F 47% 29.91 in 10.0 mi West 16.1 mph 24.2 mph N/A   Overcast
5:53 PM 41.0 °F 34.3 °F 27.0 °F 57% 29.92 in 10.0 mi West 11.5 mph 19.6 mph N/A   Unknown
6:53 PM 42.1 °F 36.1 °F 28.0 °F 58% 29.93 in 10.0 mi West 10.4 mph 24.2 mph N/A   Overcast
7:53 PM 39.9 °F 33.9 °F 30.0 °F 68% 29.94 in 10.0 mi WSW 9.2 mph - N/A   Overcast
8:53 PM 39.0 °F 33.4 °F 30.9 °F 73% 29.94 in 10.0 mi SSW 8.1 mph - N/A   Unknown
9:53 PM 39.0 °F 32.3 °F 28.0 °F 65% 29.94 in 10.0 mi SW 10.4 mph - N/A   Overcast
10:53 PM 39.0 °F 31.4 °F 26.1 °F 60% 29.94 in 10.0 mi SW 12.7 mph - N/A   Mostly Cloudy
11:53 PM 39.0 °F 30.3 °F 24.1 °F 55% 29.95 in 10.0 mi SSW 16.1 mph 20.7 mph N/A   Scattered Clouds